Tracking 33446 objects as of 10-Mar-2026
HD Live streaming from Space Station
objects crossing your sky now

OBJECT D

Track OBJECT D now!
10-day predictions


NORAD ID: 66056
Int'l Code: 2025-234D
Perigee: 502.5 km
Apogee: 507.3 km
Inclination: 97.4 °
Period: 94.6 minutes
Semi major axis: 6875 km
RCS: Unknown
Launch date: October 19, 2025
Source: (TBD)
Launch site: Jiuquan Satellite Launch Center, China (JSC)
Your satellite tracking list
Your tracking list is empty




NASA's NSSDC Master Catalog

Two Line Element Set (TLE):
1 66056U 25234D   26069.16956815  .00019193  00000-0  82557-3 0  9996
2 66056  97.4336 138.3464 0003472 165.9245 194.2089 15.22674106 21598
Source of the keplerian elements: AFSPC